STARLINK-6109, 56094

Orbit data source: Space-Track

STARLINK-6109, 56094 is a payload satellite owned by SpaceX/Seattle (US) in LEO that was launched on Wed, 29 Mar 2023 UTC via an FALCON 9 launch vehicle from the Air Force Eastern Test Range (AFETR). Payload-class satellites include a variety of spacecraft equipped with specific instruments for various scientific and technological missions. These include communications satellites like Starlink; space stations such as the ISS; scientific satellites like the Hubble; Earth observation satellites from companies like Planet Labs, Umbra, and HawkEye 360; GPS; miniature CubeSats for education and research; and military/defense satellites.

Loading next visibility...
Identifier
56094, 2023-046B
Orbit
LEO
Country
Flag of USUS
Related business
Manufacturer
SpaceX/Seattle
Mission
Operational Commercial Communications
Bus & Motor
STARLINK, Unknown motor
Mass
305 kg wet, ~290 kg dry
Launch date (UTC)
2023-03-29 (3 years ago)
Launch vehicle
FALCON 9
Launch site
Air Force Eastern Test Range (AFETR)
Object type
Payload
Rocket body
Debris
Shape & HBR
Box + 1 Pan, 10.1 m
Radar Cross Section
11.087 m², Large (>1 m²)

Expand to show TLE details & history
Last TLE update: 2 days ago

TLE from 2 days ago
0 STARLINK-6109
1 56094U 23046B   26171.41150769  .00000637  00000-0  32667-4 0  9993
2 56094  43.0049 301.2611 0001537 274.1314  85.9362 15.27589785177744
Epoch: 2026-06-20T09:52Z
TLE epoch observation values (Epoch: 2026-06-20T09:52:34.264Z)
Latitude
-0.00002°
Longitude
-115.5082°
Altitude
482.721 km
Speed
7.626 km/s
True Right ascension
20h 05m 02s
True Declination
0° 00' 00"
Sunlit
Object was in full shadow at epoch
Visualization orbit readout
Latitude
Unknown
Longitude
Unknown
Altitude
Unknown
Speed
Unknown
Apparent Right ascension
Unknown
Apparent Declination
Unknown
Sunlit
N/A
Visualization observer readout
Local Sidereal Time
21:29:20
Azimuth
Unknown
Elevation
Unknown
Doppler factor
Unknown
Orbital elements
Apogee altitude
486.019 km
Perigee altitude
483.909 km
Semi-major axis
6,863.101 km
Eccentricity
0.00015
Inclination
43.0049°
RAAN
301.2611°
Arg. of periapsis
274.1314°
True anomaly
85.95377°
Mean anomaly
85.9362°
Eccentric anomaly
85.94498°
Mean motion
3.81736 °/min
Orbital period
94.31 mins
BSTAR
0.000032667
Loading maneuver chart data...
Computing Atmospheric mass density...
Loading historical data...
Loading historical data...
Loading historical data...
Loading historical data...
Loading historical data...
Loading historical data...
Loading historical data...

Documentation

Showing up to 5 results
|